User: anonymous   Login
Location: Allen Lane School
(37.8198°N, 89.7382°W)
Time: 02:41:16
(UTC+00:00)
Language:

APEX - Orbit

View from above orbital plane
View from above orbital plane
View from above satellite
View from above satellite

Ground track
Ground track

The orbit data is extracted from the following two-line orbital elements,

1 23191U 94046A   22145.54073181  .00034599  00000-0  90105-3 0  9990
2 23191  69.9121 284.6083 0486077 214.6498 142.2082 14.67562204377927
Epoch (UTC): 25 May 2022 12:58:39
Eccentricity: 0.0486077
inclination: 69.9121°
perigee height: 326 km
apogee height: 1011 km
right ascension of ascending node: 284.6083°
argument of perigee: 214.6498°
revolutions per day: 14.67562204
mean anomaly at epoch: 142.2082°
orbit number at epoch: 37792

The dashed part of the orbit path shows where the satellite is in the earth's shadow,  

DLR